Terminal Aerodrome Forecast
Issued by NWS Dodge City, KS

Home | Current Version | Previous Version | Graphics & Text | Print | Product List | Glossary Off
Versions: 1 2 3 4 5 6 7 8 9 10 11 12 13 14 15 16 17 18 19 20 21 22 23 24

064
FTUS43 KDDC 191537 AAA
TAFDDC
TAF AMD
KDDC 191537Z 1916/2012 08019G28KT 3SM RA VCTS BKN030CB
      TEMPO 1916/1920 1SM +TSRA OVC025CB
     FM192300 07013G20KT 5SM -RA OVC008
     FM200200 02013G20KT 4SM -TSRA OVC003CB=

USA.gov is the U.S. government's official web portal to all federal, state and local government web resources and services.